This demonstration page uses our WeatherBlox Daily Observations layout. Learn more.

Left ArrowRight Arrow

Hourly Observations for July 27, 2021

Temp ( °F °C ) Dew Point ( °F °C ) Humidity (%) Winds ( mph kmh ) Pressure ( in mb ) Visibility ( mi km ) Precip ( " mm )
12:15 am 00:15 Clear 74 23.5 70 21.1 86 86 SE 7 11 29.92 1013 10 16 N/A
12:35 am 00:35 Clear 74 23.1 70 21 88 88 SSE 8 13 29.93 1013 10 16 N/A
12:55 am 00:55 Clear 73 22.9 69 20.8 88 88 SSE 7 11 29.93 1013 10 16 N/A
1:15 am 01:15 Clear 73 22.5 69 20.6 89 89 SSE 6 9 29.94 1014 10 16 N/A
1:35 am 01:35 Clear 73 22.5 69 20.5 89 89 SSE 6 9 29.93 1014 10 16 N/A
1:55 am 01:55 Clear 73 22.5 69 20.5 89 89 SSE 3 6 29.94 1014 10 16 N/A
2:15 am 02:15 Clear 72 22.1 68 20.2 89 89 N N/A 29.93 1014 10 16 N/A
2:35 am 02:35 Clear 72 22.2 69 20.3 89 89 S 3 6 29.93 1014 10 16 N/A
2:55 am 02:55 Clear 72 22 68 20.1 89 89 N N/A 29.93 1014 10 16 N/A
3:15 am 03:15 Clear 72 22.2 68 20.1 88 88 N N/A 29.93 1014 10 16 N/A
3:35 am 03:35 Clear 72 22 68 19.9 88 88 N N/A 29.92 1013 10 16 N/A
3:55 am 03:55 Clear 72 22.1 67 19.7 86 86 N N/A 29.93 1014 10 16 N/A
4:15 am 04:15 Clear 68 20.1 66 19 93 93 E 5 7 29.95 1014 10 16 N/A
4:35 am 04:35 Clear 68 19.8 66 18.8 94 94 ENE 3 6 29.95 1014 10 16 N/A
4:55 am 04:55 Clear 69 20.7 67 19.6 93 93 N N/A 29.96 1014 10 16 N/A
5:15 am 05:15 Clear 70 21 68 19.8 93 93 SE 5 7 29.95 1014 10 16 N/A
5:35 am 05:35 Clear 69 20.5 67 19.5 94 94 SSE 6 9 29.96 1014 10 16 N/A
5:55 am 05:55 Clear 68 20.1 67 19.2 95 95 SE 5 7 29.96 1015 10 16 N/A
6:15 am 06:15 Clear 68 20 67 19.2 95 95 N N/A 29.96 1015 10 16 N/A
6:35 am 06:35 Sunny 67 19.6 66 18.9 96 96 N N/A 29.98 1015 7 11 N/A
6:55 am 06:55 Sunny 67 19.7 66 19.1 96 96 N N/A 29.97 1015 7 11 N/A
7:15 am 07:15 Sunny 67 19.5 66 18.7 95 95 N N/A 29.98 1015 7 11 N/A
7:35 am 07:35 Sunny with Mist and Fog 67 19.4 66 18.7 96 96 N N/A 29.99 1015 4 6 N/A
7:55 am 07:55 Sunny with Mist and Fog 68 20 67 19.3 96 96 N N/A 29.98 1015 4 6 N/A
8:15 am 08:15 Sunny with Mist and Fog 69 20.7 68 20 96 96 N N/A 29.99 1015 5 8 N/A
8:35 am 08:35 Sunny 72 22.3 69 20.3 89 89 N N/A 29.97 1015 10 16 N/A
8:55 am 08:55 Hazy 74 23.3 69 20.4 84 84 N N/A 29.96 1015 5 8 N/A
9:15 am 09:15 Sunny 75 23.8 69 20.5 82 82 N N/A 29.97 1015 10 16 N/A
9:35 am 09:35 Sunny 76 24.7 69 20.6 78 78 N N/A 29.96 1015 10 16 N/A
9:55 am 09:55 Sunny 78 25.4 70 21.3 78 78 N N/A 29.96 1014 10 16 N/A
10:15 am 10:15 Sunny 79 26.3 71 21.5 75 75 N N/A 29.95 1014 10 16 N/A
10:35 am 10:35 Sunny 82 27.5 71 21.6 70 70 N N/A 29.94 1014 10 16 N/A
10:55 am 10:55 Sunny 83 28.3 71 21.9 68 68 N N/A 29.93 1014 10 16 N/A
11:15 am 11:15 Sunny 84 28.9 71 21.4 64 64 N N/A 29.93 1013 10 16 N/A
11:35 am 11:35 Sunny 85 29.7 71 21.8 63 63 N N/A 29.92 1013 10 16 N/A
11:55 am 11:55 Sunny 87 30.5 71 21.6 59 59 S 3 6 29.91 1013 10 16 N/A
12:15 pm 12:15 Sunny 88 31.2 72 22.2 59 59 SE 6 9 29.91 1013 10 16 N/A
12:35 pm 12:35 Sunny 90 32.3 71 21.5 53 53 S 7 11 29.89 1012 10 16 N/A
12:55 pm 12:55 Sunny 91 32.7 71 21.4 51 51 S 9 15 29.89 1012 10 16 N/A
1:15 pm 13:15 Sunny 91 33 69 20.8 49 49 S 12 19 29.88 1012 10 16 N/A
1:35 pm 13:35 Sunny 91 32.8 70 21.2 50 50 S 14 22 29.88 1012 10 16 N/A
1:55 pm 13:55 Sunny 92 33.3 71 21.5 50 50 S 12 19 29.87 1012 10 16 N/A
2:15 pm 14:15 Sunny 92 33.3 70 21.2 49 49 S 12 19 29.87 1012 10 16 N/A
2:35 pm 14:35 Sunny 92 33.4 71 21.7 50 50 S 8 13 29.87 1012 10 16 N/A
2:55 pm 14:55 Sunny 92 33.4 71 21.5 50 50 S 12 19 29.87 1012 10 16 N/A
3:15 pm 15:15 Sunny 92 33.5 71 21.9 51 51 S 12 19 29.87 1012 10 16 N/A
3:35 pm 15:35 Sunny 92 33.6 72 22.1 51 51 SSE 10 17 29.87 1012 10 16 N/A
3:55 pm 15:55 Sunny 93 33.7 70 21.3 48 48 S 13 20 29.87 1011 10 16 N/A
4:15 pm 16:15 Sunny 93 33.9 70 21.2 47 47 S 10 17 29.86 1011 10 16 N/A
4:35 pm 16:35 Sunny 92 33.6 71 21.5 49 49 SSE 10 17 29.86 1011 10 16 N/A
4:55 pm 16:55 Sunny 92 33.5 72 22.4 52 52 SSE 12 19 29.86 1011 10 16 N/A
5:15 pm 17:15 Sunny 92 33.5 72 22 51 51 SSE 9 15 29.86 1011 10 16 N/A
5:35 pm 17:35 Hazy 92 33.2 71 21.6 51 51 SSE 10 17 29.86 1011 5 8 N/A
5:55 pm 17:55 Sunny 92 33.5 72 22 51 51 SSE 8 13 29.85 1011 10 16 N/A
6:15 pm 18:15 Sunny 92 33.3 72 22 52 52 SSE 10 17 29.85 1011 10 16 N/A
6:35 pm 18:35 Partly Cloudy 91 32.8 72 22.1 53 53 SSE 8 13 29.86 1011 10 16 N/A
6:55 pm 18:55 Hazy 91 32.5 71 21.7 53 53 SSE 8 13 29.85 1011 3 4 N/A
7:15 pm 19:15 Partly Cloudy 90 32.1 72 22 55 55 SSE 8 13 29.85 1011 7 11 N/A
7:35 pm 19:35 Sunny 89 31.7 72 22.4 58 58 SSE 7 11 29.86 1011 10 16 N/A
7:55 pm 19:55 Sunny 88 31.3 73 23 61 61 SE 7 11 29.86 1011 10 16 N/A
8:15 pm 20:15 Sunny 87 30.6 73 23 64 64 SE 6 9 29.86 1011 10 16 N/A
8:35 pm 20:35 Sunny 85 29.7 74 23.3 69 69 SE 7 11 29.87 1012 10 16 N/A
8:55 pm 20:55 Sunny 84 29.1 74 23.6 72 72 SE 7 11 29.88 1012 10 16 N/A
9:15 pm 21:15 Clear 83 28.3 75 23.8 77 77 SE 7 11 29.88 1012 10 16 N/A
9:35 pm 21:35 Clear 82 27.9 75 24.1 80 80 SE 7 11 29.90 1012 10 16 N/A
9:55 pm 21:55 Clear 82 27.5 75 24.1 82 82 SE 7 11 29.90 1012 10 16 N/A
10:15 pm 22:15 Clear 81 27 75 23.9 83 83 SE 7 11 29.91 1013 10 16 N/A
10:35 pm 22:35 Clear 80 26.4 75 23.8 86 86 SE 7 11 29.93 1013 10 16 N/A
10:55 pm 22:55 Clear 80 26.4 75 23.7 85 85 SE 5 7 29.93 1013 10 16 N/A
11:15 pm 23:15 Clear 79 25.9 74 23.2 85 85 SE 5 7 29.93 1014 10 16 N/A
11:35 pm 23:35 Clear 79 25.9 73 22.8 83 83 SE 6 9 29.93 1014 10 16 N/A
11:55 pm 23:55 Clear 77 25.2 72 22.1 83 83 SSE 7 11 29.95 1014 10 16 N/A

Powered by AerisWeather